Location: G�ndlingen
(48.0142°N, 7.6396°E)
Time: 18:18:50
(UTC+00:00)

SL-16 R/B - Pass Details

Date: 05 July 2020
Orbit: 843 x 846 km, 71.0° (Epoch: 12 August)

Event Time Altitude Azimuth Distance (km) Brightness Sun altitude
Rises 20:50:30 0° 236° (SW) 3,394 5.4 -10.4°
Reaches altitude 10° 20:53:10 10° 245° (WSW) 2,463 4.8 -10.6°
Maximum altitude 20:58:16 34° 310° (NW) 1,365 4.1 -11.1°
Drops below altitude 10° 21:03:25 10° 15° (NNE) 2,478 5.2 -11.6°
Sets 21:06:07 0° 24° (NNE) 3,417 5.8 -11.9°
